When you browse on this site, cookies collect data to enhance your experience and personalize the content and advertising you see.
Visit our Privacy Policy to learn more. By continuing to use the site, you agree to this use of cookies and data.
  • En España
  • Lista de países
  • Para 7 días
  • Temperatura del agua
  • El tiempo en el mapa
  • Informadores
  • user-avatar
    Iniciar sesión

    Tiempo cada hora Exeter

    Hoy, 27 Febrero, Jueves

    Tiempo Temperatura Precipitaciones Viento Presión Humedad
    00:00 +3°C° 0 mm 4 mps 744 mmHg 92%
    01:00 +3°C° 2 mm 5 mps 742 mmHg 94%
    02:00 +3°C° 2 mm 5 mps 740 mmHg 96%
    03:00 +3°C° 2 mm 6 mps 738 mmHg 97%
    04:00 +3°C° 1.7 mm 7 mps 737 mmHg 97%
    05:00 +2°C° 1.7 mm 8 mps 737 mmHg 96%
    06:00 +2°C° 0 mm 9 mps 737 mmHg 95%
    07:00 +2°C° 0.1 mm 8 mps 738 mmHg 93%
    08:00 +1°C° 0.1 mm 8 mps 740 mmHg 91%
    09:00 +1°C° 0.1 mm 8 mps 742 mmHg 88%
    10:00 +2°C° 0 mm 9 mps 743 mmHg 84%
    11:00 +3°C° 0 mm 9 mps 745 mmHg 80%
    12:00 +5°C° 0 mm 8 mps 747 mmHg 74%
    13:00 +5°C° 0 mm 8 mps 748 mmHg 71%
    14:00 +5°C° 0 mm 8 mps 748 mmHg 68%
    15:00 +5°C° 0 mm 7 mps 749 mmHg 65%
    16:00 +4°C° 0 mm 6 mps 750 mmHg 70%
    17:00 +2°C° 0 mm 5 mps 751 mmHg 76%
    18:00 +2°C° 0 mm 3 mps 752 mmHg 81%
    19:00 +2°C° 0 mm 3 mps 752 mmHg 82%
    20:00 +1°C° 0 mm 3 mps 752 mmHg 82%
    21:00 +2°C° 0 mm 2 mps 753 mmHg 83%
    22:00 +3°C° 0 mm 2 mps 753 mmHg 81%
    23:00 +3°C° 0 mm 2 mps 753 mmHg 79%

    Mañana, 28 Febrero, Viernes

    Tiempo Temperatura Precipitaciones Viento Presión Humedad
    00:00 +3°C° 0 mm 2 mps 753 mmHg 76%
    01:00 +3°C° 0 mm 3 mps 752 mmHg 76%
    02:00 +3°C° 0 mm 4 mps 752 mmHg 76%
    03:00 +3°C° 0 mm 6 mps 751 mmHg 75%
    04:00 +2°C° 0.7 mm 6 mps 750 mmHg 82%
    05:00 +2°C° 0.7 mm 7 mps 749 mmHg 89%
    06:00 +1°C° 0.7 mm 8 mps 748 mmHg 95%
    07:00 +2°C° 1.8 mm 8 mps 747 mmHg 96%
    08:00 +5°C° 1.8 mm 8 mps 746 mmHg 97%
    09:00 +6°C° 1.8 mm 7 mps 744 mmHg 97%
    10:00 +7°C° 0.8 mm 8 mps 744 mmHg 97%
    11:00 +9°C° 0.8 mm 8 mps 744 mmHg 96%
    12:00 +10°C° 0.8 mm 9 mps 743 mmHg 95%
    13:00 +10°C° 0.1 mm 9 mps 743 mmHg 93%
    14:00 +10°C° 0.1 mm 9 mps 742 mmHg 92%
    15:00 +10°C° 0.1 mm 9 mps 741 mmHg 90%
    16:00 +10°C° 0 mm 9 mps 741 mmHg 90%
    17:00 +8°C° 0 mm 10 mps 740 mmHg 91%
    18:00 +8°C° 0 mm 10 mps 739 mmHg 91%
    19:00 +8°C° 0 mm 10 mps 738 mmHg 90%
    20:00 +8°C° 0 mm 11 mps 737 mmHg 90%
    21:00 +8°C° 0 mm 11 mps 736 mmHg 89%
    22:00 +8°C° 0 mm 12 mps 735 mmHg 89%
    23:00 +8°C° 0 mm 12 mps 734 mmHg 89%

    Pasado mañana, 29 Febrero, Sábado

    Tiempo Temperatura Precipitaciones Viento Presión Humedad
    00:00 +8°C° 0 mm 13 mps 733 mmHg 88%
    01:00 +8°C° 2.1 mm 13 mps 732 mmHg 90%
    02:00 +7°C° 2.1 mm 13 mps 730 mmHg 92%
    03:00 +7°C° 2.1 mm 13 mps 729 mmHg 93%
    04:00 +6°C° 0.8 mm 11 mps 729 mmHg 90%
    05:00 +5°C° 0.8 mm 9 mps 729 mmHg 87%
    06:00 +3°C° 0.8 mm 7 mps 729 mmHg 84%
    07:00 +2°C° 0.1 mm 8 mps 730 mmHg 81%
    08:00 +1°C° 0.1 mm 8 mps 730 mmHg 79%
    09:00 +1°C° 0.1 mm 9 mps 731 mmHg 76%
    10:00 +1°C° 0.1 mm 10 mps 731 mmHg 75%
    11:00 +2°C° 0.1 mm 11 mps 732 mmHg 73%
    12:00 +2°C° 0.1 mm 12 mps 732 mmHg 72%
    13:00 +1°C° 0.1 mm 13 mps 732 mmHg 69%
    14:00 +3°C° 0.1 mm 13 mps 732 mmHg 66%
    15:00 +3°C° 0.1 mm 13 mps 732 mmHg 63%
    16:00 +3°C° 0 mm 12 mps 732 mmHg 66%
    17:00 +2°C° 0 mm 11 mps 732 mmHg 69%
    18:00 +2°C° 0 mm 10 mps 732 mmHg 72%
    19:00 +1°C° 0 mm 10 mps 732 mmHg 72%
    20:00 +1°C° 0 mm 9 mps 732 mmHg 71%
    21:00 +1°C° 0 mm 9 mps 732 mmHg 71%
    22:00 +1°C° 0.1 mm 9 mps 733 mmHg 71%
    23:00 +1°C° 0.1 mm 10 mps 733 mmHg 70%

    1 Marzo, Domingo

    Tiempo Temperatura Precipitaciones Viento Presión Humedad
    00:00 +1°C° 0.1 mm 10 mps 733 mmHg 70%
    01:00 +1°C° 0 mm 10 mps 733 mmHg 70%
    02:00 +1°C° 0 mm 9 mps 734 mmHg 71%
    03:00 +1°C° 0 mm 9 mps 734 mmHg 71%
    04:00 +1°C° 0 mm 8 mps 734 mmHg 71%
    05:00 +1°C° 0 mm 8 mps 734 mmHg 71%
    06:00 +2°C° 0 mm 7 mps 734 mmHg 72%
    07:00 +1°C° 0 mm 8 mps 734 mmHg 72%
    08:00 +2°C° 0 mm 8 mps 733 mmHg 72%
    09:00 +2°C° 0 mm 8 mps 733 mmHg 71%
    10:00 +4°C° 0.1 mm 8 mps 734 mmHg 69%
    11:00 +4°C° 0.1 mm 8 mps 734 mmHg 66%
    12:00 +5°C° 0.1 mm 9 mps 734 mmHg 64%
    13:00 +5°C° 0.1 mm 9 mps 734 mmHg 64%
    14:00 +5°C° 0.1 mm 9 mps 734 mmHg 64%
    15:00 +5°C° 0.1 mm 9 mps 734 mmHg 64%
    16:00 +4°C° 0 mm 8 mps 734 mmHg 68%
    17:00 +3°C° 0 mm 7 mps 734 mmHg 72%
    18:00 +2°C° 0 mm 5 mps 734 mmHg 76%
    19:00 +1°C° 0 mm 5 mps 734 mmHg 77%
    20:00 +1°C° 0 mm 5 mps 735 mmHg 78%
    21:00 0°C° 0 mm 5 mps 735 mmHg 80%
    22:00 0°C° 0 mm 4 mps 735 mmHg 81%
    23:00 0°C° 0 mm 4 mps 735 mmHg 82%

    2 Marzo, Lunes

    Tiempo Temperatura Precipitaciones Viento Presión Humedad
    00:00 0°C° 0 mm 4 mps 736 mmHg 83%
    01:00 0°C° 0 mm 4 mps 736 mmHg 84%
    02:00 0°C° 0 mm 4 mps 736 mmHg 85%
    03:00 0°C° 0 mm 4 mps 736 mmHg 85%
    04:00 0°C° 0 mm 4 mps 736 mmHg 86%
    05:00 0°C° 0 mm 4 mps 737 mmHg 87%
    06:00 -1°C° 0 mm 4 mps 737 mmHg 87%
    07:00 +1°C° 0 mm 4 mps 737 mmHg 83%
    08:00 +2°C° 0 mm 5 mps 738 mmHg 79%
    09:00 +3°C° 0 mm 5 mps 738 mmHg 75%
    10:00 +4°C° 0.1 mm 6 mps 739 mmHg 71%
    11:00 +4°C° 0.1 mm 6 mps 739 mmHg 67%
    12:00 +5°C° 0.1 mm 6 mps 740 mmHg 63%
    13:00 +5°C° 0.1 mm 6 mps 740 mmHg 63%
    14:00 +5°C° 0.1 mm 6 mps 740 mmHg 62%
    15:00 +5°C° 0.1 mm 6 mps 741 mmHg 61%
    16:00 +3°C° 0 mm 6 mps 741 mmHg 67%
    17:00 +2°C° 0 mm 5 mps 742 mmHg 73%
    18:00 +1°C° 0 mm 4 mps 742 mmHg 78%
    19:00 0°C° 0 mm 4 mps 743 mmHg 80%
    20:00 0°C° 0 mm 4 mps 743 mmHg 82%
    21:00 -1°C° 0 mm 4 mps 744 mmHg 84%
    22:00 -1°C° 0 mm 4 mps 744 mmHg 84%
    23:00 -1°C° 0 mm 4 mps 745 mmHg 84%

    3 Marzo, Martes

    Tiempo Temperatura Precipitaciones Viento Presión Humedad
    00:00 0°C° 0 mm 3 mps 745 mmHg 84%
    01:00 0°C° 0 mm 3 mps 746 mmHg 84%
    02:00 0°C° 0 mm 3 mps 746 mmHg 85%
    03:00 0°C° 0 mm 3 mps 746 mmHg 85%
    04:00 0°C° 0 mm 3 mps 746 mmHg 84%
    05:00 0°C° 0 mm 3 mps 746 mmHg 83%
    06:00 +1°C° 0 mm 2 mps 746 mmHg 82%
    07:00 +1°C° 0 mm 3 mps 746 mmHg 80%
    08:00 +3°C° 0 mm 3 mps 746 mmHg 77%
    09:00 +4°C° 0 mm 3 mps 746 mmHg 74%
    10:00 +4°C° 0.1 mm 4 mps 745 mmHg 76%
    11:00 +5°C° 0.1 mm 4 mps 744 mmHg 79%
    12:00 +5°C° 0.1 mm 5 mps 744 mmHg 81%
    13:00 +4°C° 0.9 mm 6 mps 743 mmHg 86%
    14:00 +4°C° 0.9 mm 7 mps 741 mmHg 90%
    15:00 +3°C° 0.9 mm 7 mps 740 mmHg 95%
    16:00 +4°C° 1 mm 7 mps 739 mmHg 95%
    17:00 +4°C° 1 mm 7 mps 738 mmHg 96%
    18:00 +5°C° 1 mm 7 mps 737 mmHg 96%
    19:00 +5°C° 0.2 mm 6 mps 737 mmHg 95%
    20:00 +5°C° 0.2 mm 6 mps 736 mmHg 94%
    21:00 +6°C° 0.2 mm 5 mps 736 mmHg 93%
    22:00 +6°C° 0.1 mm 5 mps 736 mmHg 93%
    23:00 +5°C° 0.1 mm 5 mps 736 mmHg 94%
    Mostrar más